AirNav   Air Wisconsin Up To $57,000 Bonus
 
 715 users online  

KHHR Jack Northrop Field/Hawthorne Municipal Airport
Hawthorne, California, USA

GOING TO HAWTHORNE?


FAA INFORMATION EFFECTIVE 16 JUNE 2022

Location

FAA Identifier: HHR
Lat/Long: 33-55-22.3000N 118-20-06.3000W
33-55.371667N 118-20.105000W
33.9228611,-118.3350833
(estimated)
Elevation: 65.9 ft. / 20.1 m (surveyed)
Variation: 14E (1985)
From city: 1 mile E of HAWTHORNE, CA
Time zone: UTC -7 (UTC -8 during Standard Time)
Zip code: 90250

Airport Operations

Airport use: Open to the public
Activation date: 10/1942
Control tower: yes
ARTCC: LOS ANGELES CENTER
FSS: HAWTHORNE FLIGHT SERVICE STATION
NOTAMs facility: HHR (NOTAM-D service available)
Attendance: M-F 0500-2200, ALL SAT 0600-2100, ALL SUN 0600-2200
Pattern altitude: 1165.9 ft. MSL
TPA FOR TURBINE & HIGH PER ACFT 1600 (1534), LGT ACFT 1100 (1034), HELS 700 (634).
Wind indicator: lighted
Segmented circle: yes
Lights: WHEN ATCT CLSD ACTVT MIRL RY 07/25 & ODALS RY 25 - CTAF.
Beacon: white-green (lighted land airport)
Operates sunset to sunrise.
Taxiway lights: N EDGE OF N TWY UNLGTD; WEST 1000' OF SOUTH TWY UNLGTD.

Airport Communications

CTAF: 121.1
ATIS: 118.4
WX ASOS: PHONE 310-973-8930
HAWTHORNE GROUND: 125.1 [0600-2200]
HAWTHORNE TOWER: 121.1 257.8 [0600-2200]
SOCAL APPROACH: 124.3 ;146-245 HHR 124.9 ;069-145 LAX 125.2 ;246-342 LAX 128.5 ;343-068
SOCAL DEPARTURE: 124.3
IC: 124.9 ;069-145 LAX
IRNMN STAR: 124.5
RYDRR STAR: 124.5
WX ASOS at LAX (4 nm W): PHONE 310-568-1486
WX AWOS-3PT at CPM (5 nm SE): 127.150 (310-631-3022)
WX ASOS at SMO (8 nm NW): PHONE 310-392-6453
WX ASOS at LGB (11 nm SE): PHONE 562-424-0572
WX ASOS at BUR (17 nm N): PHONE 818-841-1384
WX AWOS-3PT at EMT (18 nm NE): 118.75 ((626) 444-1107)
WX ASOS at FUL (18 nm E): PHONE 714-870-1372
WX ASOS at VNY (19 nm NW): PHONE 818-904-9213

Airport Services

Fuel available: 100LL JET-A
100LL:100LL FUEL AVBL 24 HRS SELF-SERVICE. JET A FUEL AVBL 0500-2200 M-F, 0600-2100 SAT, 0600-2200 SUN; AFTER HRS SVC CALL JET CENTER LOS ANGELES (310) 676-4673 OR HAWTHORNE HANGAR OPERATIONS (310) 644-0400.
Parking: tiedowns
Airframe service: MAJOR
Powerplant service: MAJOR
Bottled oxygen: HIGH
Bulk oxygen: HIGH

Runway Information

Runway 7/25

Dimensions: 4884 x 100 ft. / 1489 x 30 m
Surface: asphalt, in good condition
Weight bearing capacity: 
Single wheel: 30.0
Double wheel: 60.0
Double tandem: 90.0
Runway edge lights: medium intensity
RUNWAY 7  RUNWAY 25
Latitude: 33-55.348095N33-55.393648N
Longitude: 118-20.587365W118-19.623055W
Elevation: 65.9 ft.60.8 ft.
Traffic pattern: rightleft
Runway heading: 073 magnetic, 087 true253 magnetic, 267 true
Displaced threshold: 905 ft.460 ft.
Declared distances: TORA:4956 TODA:4956 ASDA:4736 LDA:3765TORA:4956 TODA:4956 ASDA:4656 LDA:4193
Markings: nonprecision, in fair conditionnonprecision, in fair condition
Visual slope indicator: 2-box VASI on right (3.25 degrees glide path)4-box VASI on right (3.50 degrees glide path)
Approach lights: ODALS: omnidirectional approach lighting system
Runway end identifier lights: noyes
Touchdown point: yes, no lightsyes, no lights
Instrument approach: LOCALIZER
Obstructions: 13 ft. road, 200 ft. from runway
LOC AT RY END. STREET AT 110 FT FROM RY END 07 +37 FT POLE 100 FT FROM E OR 250 FT RIGHT; +10 FT BLDG 100 FT FROM E OR 200 FT RIGHT.
23 ft. pole, lighted, 200 ft. from runway, 100 ft. right of centerline
+8 FT BLAST FENCE LEFT AT 70 FT ON CNTRLN; +23 FT LGT STD AT 110 FT; STREET AT 110 FT FM RY END 25; 500 FT LEFT & RIGHT OF CNTRLN; +6 FT FENCE LEFT AT 105 FT FM EOR 500 FT LEFT & RIGHT OF CNTRLN.

Airport Ownership and Management from official FAA records

Ownership: Publicly-owned
Owner: CITY OF HAWTHORNE
CITY HALL, 4455 W 126 ST.
HAWTHORNE, CA 90250
Phone 310-349-2900
Manager: GUIDO FERNANDEZ
12101 S.CRENSHAW BLVD, SUITE # 3
HAWTHORNE, CA 90250
Phone 310-349-1637
EMAIL: GFERNANDEZ@CITYOFHAWTHORNE.ORG

Airport Operational Statistics

Aircraft based on the field: 184
Single engine airplanes: 132
Multi engine airplanes: 24
Jet airplanes: 11
Helicopters: 14
Ultralights: 3
    
Aircraft operations: avg 220/day *
52% transient general aviation
47% local general aviation
1% military
<1% air taxi
* for 12-month period ending 31 December 2019

Additional Remarks

TGL, STOP AND GO LDG AND LOW APCH OPNS FOR ALL ACFT INCLG HELS LTD TO 1000-1700 DLY.
NO PAT OPNS, NO TAXI-BACK OPNS MON-FRI 2200-0800, SAT-SUN 2200-1000.
RWY 25 RUNUP SOUTH OF S TWY 900 FT WEST OF AER 25.
N TWY WEST OF E TWY DESIGNATED NON-MOVEMENT AREA.
FOR NOISE ABATEMENT INFO CTC ARPT SUPVR (310) 349-1637 OR 1636.
NO FRMN TKOFS AUTH.
RWY 25 TOUCH AND GO, STOP AND GO, AND INT TKOFS ARE REQSTD TO BE AIRBORNE BY D TWY.
HOVER WORK LTD TO N TWY BTN C AND D TWYS.
ALL PISTON ACFT MUST BE EQUIPPED WITH MUFFLER SYS.
FOR CD WHEN ATCT CLSD CTC SOCAL APCH AT 800-448-3724.
OBSTN PT 77: HNGRS, PLINES, BLDG-ANT ON RWY 07; POLES & TRML ON RWY 25.
BE ALERT TO 8 FT BLAST FENCE AER 25.
NUMEROUS FLOCKS OF BIRDS ON AND INVOF ARPT.

Instrument Procedures

NOTE: All procedures below are presented as PDF files. If you need a reader for these files, you should download the free Adobe Reader.

NOT FOR NAVIGATION. Please procure official charts for flight.
FAA instrument procedures published for use from 16 June 2022 at 0901Z to 14 July 2022 at 0900z.

 
STARs - Standard Terminal Arrivals
IRNMN TWO (RNAV)   2 pages: [1] [2] (399KB)
RYDRR TWO (RNAV)   2 pages: [1] [2] (405KB)
 
IAPs - Instrument Approach Procedures
RNAV (GPS) RWY 25   download (312KB)
LOC RWY 25   download (304KB)
VOR RWY 25   download (281KB)
NOTE: Special Alternate Minimums apply   download (118KB)
 
Departure Procedures
SPACX TWO (RNAV)   download (198KB)
NOTE: Special Take-Off Minimums/Departure Procedures apply   download (350KB)

Other nearby airports with instrument procedures:

KLAX - Los Angeles International Airport (4 nm W)
KTOA - Zamperini Field Airport (7 nm S)
KSMO - Santa Monica Municipal Airport (8 nm NW)
KLGB - Long Beach Airport (Daugherty Field) (11 nm SE)
KSLI - Los Alamitos Army Airfield (16 nm SE)
KBUR - Bob Hope Airport (17 nm N)
KEMT - San Gabriel Valley Airport (18 nm NE)
KFUL - Fullerton Municipal Airport (18 nm E)
KVNY - Van Nuys Airport (19 nm NW)
 
Loc | Ops | Rwys | IFR | FBO | Links
Com | Nav | Svcs | Stats | Notes
Area around KHHR (Jack Northrop Field/Hawthorne Municipal Airport)
 
Road maps at: MapQuest Bing Google
 
Aerial photo
WARNING: Photo may not be current or correct
Aerial photo of KHHR (Jack Northrop Field/Hawthorne Municipal Airport)
Photo by focalflight.com
Photo taken 28-Apr-2015
looking northeast.

Do you have a better or more recent aerial photo of Jack Northrop Field/Hawthorne Municipal Airport that you would like to share? If so, please send us your photo.

 
Sectional chart

 
Airport diagram
CAUTION: Diagram may not be current
Diagram of KHHR (Jack Northrop Field/Hawthorne Municipal Airport)
Download PDF
of official airport diagram from the FAA

 
Airport distance calculator
Flying to Jack Northrop Field/Hawthorne Municipal Airport? Find the distance to fly.

From to KHHR

Sunrise and sunset
Times for 30-Jun-2022
 Local
(UTC-7)
 Zulu
(UTC)
Morning civil twilight05:1712:17
Sunrise05:4712:47
Sunset20:0703:07
Evening civil twilight20:3603:36

Current date and time
Zulu (UTC)  30-Jun-2022 11:06:30
Local (UTC-7)  30-Jun-2022 04:06:30
 
METAR
KHHR 301053Z AUTO 29003KT 8SM OVC011 19/16 A3000 RMK AO2 SLP156 T01890161
KLAX 
2nm W 
301053Z 26005KT 4SM BR BKN005 BKN010 18/16 A3000 RMK AO2 SLP155 T01780161
KSMO 
8nm NW 
301051Z AUTO 25003KT 6SM BR OVC004 18/17 A3000 RMK AO2 SLP156 T01780167
KTOA 
8nm S 
300247Z 27012KT 10SM FEW010 21/17 A2997 RMK LAST
KCQT 
9nm NE 
301047Z AUTO 00000KT 8SM CLR 18/16 A2999 RMK AO2 SLP152 T01830161 $
KLGB 
11nm SE 
301053Z 21005KT 8SM SCT006 18/16 A2999 RMK AO2 SLP156 T01830161
KBUR 
17nm N 
301053Z 12003KT 8SM 21/16 A3000 RMK AO2 SLP144 T02060161 $
KSLI 
18nm SE 
301058Z AUTO 00000KT 8SM OVC007 17/13 A2997 RMK AO2 SLP152 T01680125
KFUL 
18nm E 
301053Z AUTO 19004KT 8SM CLR 19/17 A2998 RMK AO2 SLP152 T01890167 $
KEMT 
18nm NE 
300257Z 21006KT 10SM CLR 27/15 A2998
TAF
KLAX 
2nm W 
301004Z 3010/0112 VRB03KT 5SM BR SCT005 FM301100 VRB03KT P6SM OVC005 FM301400 VRB03KT P6SM OVC008 FM301800 25006KT P6SM SCT250 FM302100 26012KT P6SM SCT250 FM010300 26010KT P6SM BKN004 FM010800 26005KT 6SM BR OVC004
KSMO 
8nm NW 
300737Z 3008/0106 VRB03KT P6SM SCT005 FM300900 VRB03KT P6SM OVC005 FM301500 VRB03KT P6SM OVC008 FM301700 22006KT P6SM SKC FM010400 VRB03KT P6SM BKN006
KLGB 
11nm SE 
301005Z 3010/0106 31005KT P6SM SKC FM301200 VRB03KT P6SM OVC006 FM301700 20008KT P6SM SKC FM302300 30008KT P6SM SKC FM010400 VRB03KT P6SM SKC
KBUR 
17nm N 
300536Z 3006/0106 VRB03KT P6SM SKC FM301800 13006KT P6SM SKC FM302100 18010KT P6SM SKC FM010500 VRB03KT P6SM SKC
KSLI 
18nm SE 
300500Z 3005/0111 VRB06KT 9999 SKC QNH2992INS TX27/3023Z TN18/0111Z
KVNY 
19nm NW 
300536Z 3006/0106 VRB03KT P6SM SKC FM302000 15008KT P6SM SKC FM010300 12005KT P6SM SKC
NOTAMs
Click for the latest NOTAMs
NOTAMs are issued by the DoD/FAA and will open in a separate window not controlled by AirNav.

 

 
 

FBO, Fuel Providers, and Aircraft Ground Support

  
 Business Name 
 
 Contact 
 
 Services / Description 
 
Fuel Prices
 
Comments
  
Jet Center Los Angeles 123.30
310-676-4673
[web site]
[email]
Airport management, Aviation fuel, Aircraft parking (ramp or tiedown), Hangars, Hangar leasing / sales, GPU / Power cart, Passenger terminal and lounge, ...
More info and photos of Jet Center Los Angeles
 
AirBoss™ fuel program   Face masks required   IS-BAH Registered   NATA Safety 1st   Titan Contract Fuel   Crew cars   Courtesy shuttle   Go Rentals   Wireless Internet Access (WiFi)   Wheelchair Accessible   National Business Aviation Association  
 
Titan
100LL Jet A
FS $8.76 $9.19 
SS $7.76 --- 
GUARANTEED
AirBossMEMBERS
ONLY
Discounts
LoginJoin
 
   7 read write
Hawthorne Hangar Operations ASRI 128.85
310-644-0400
[email]
ABOUT HAWTHORNE HANGAR OPERATIONS
Hawthorne Hangar Operations (HHO) is a new full-service FBO centrally located on the Hawthorne Municipal Airport field in the Wolfe Air hangar facility (turnout Delta on runway 7-25). Offering both Jet A and Avgas, HHO began operations as KHHR's CAA-preferred FBO on August 1, 2017. HHO offers all the amenities discerning guests expect from a customer-centric FBO, complete with concierge services for every client. Guests can now fly in and fuel up with the options of full service with a jet fuel truck or assisted self-service at self service station.
More info and photos of Hawthorne Hangar Operations
 
U.S. Government AIR Card   CAA Preferred FBO   Avfuel Contract Fuel   Fly Louie Alliance   UVair   World Fuel Contract Fuel   AVTRIP   Contract Fuel   Crew cars   Courtesy shuttle   Enterprise Rent-A-Car   Go Rentals   Hertz   National Business Aviation Association  
 
Avfuel
100LL Jet A
FS $8.39 $7.97 
GUARANTEED
 
   24 read write
FS=Full service
SS=Self service
Update Fuel Prices
 

Aviation Businesses, Services, and Facilities

  
 Business Name 
 
 Contact 
 
 Services / Description 
 
Distance
 
Comments
  
Leading Edge Avionics
Leading Edge Avionics
toll-free 855-955-6151
[web site]
[email]

Like us on facebook See us on instagram Follow us on twitter
Leading Edge Avionics is a FAA Certified Part 145 Repair Station (137R236D) that provides outstanding avionics repair and installation services for all General Aviation aircraft from business jets to helicopters to single engine airplanes. We are committed to delivering our customers with services that ensure uncompromised safety and the highest quality of workmanship and reliability, while exceeding our clients' expectations on all levels. 24/7 AOG Service is also available at all Southern California airports, so call us at (855) 955-6151 and let us exceed all your service expectations!
More info and photos of Leading Edge Avionics
located at KSNA  
   write
 Star Helicopters
310-355-1959
[web site]
[email]

Like us on facebook
Flight training, Aerial tours / aerial sightseeing, Aerial photography, Aviation accessories, Aircraft sales / leasing / brokerage, Pilot supplies, Computerized weather, Restrooms
 
Certificated Pilot School  
 
More info about Star Helicopters
on airport  
   write
 

Getting Around: Taxi, Limo, Rental Cars, Mass Transit

  
 Business Name 
 
 Contact 
 
Services / Description
 
Comments
  
MTA Metro Rail, Green Line 213-620-7245
no information available

If you are affiliated with MTA Metro Rail, Green Line and would like to show here your services, contact info, web link, logo, and more, click here
 
   write
 

Would you like to see your business listed on this page?

 If your business provides an interesting product or service to pilots, flight crews, aircraft, or users of the Jack Northrop Field/Hawthorne Municipal Airport, you should consider listing it here.  To start the listing process, click on the button below
 
Add a business
 

Other Pages about Jack Northrop Field/Hawthorne Municipal Airport

www.cityofhawthorne.com/...
 
Update a link
 
Copyright © AirNav, LLC. All rights reserved. Privacy Policy  Contact